Jamestown, NY

10:27 PM EST on December 11, 2019 (GMT -0500)
Chautauqua County-Jamestown

Weather History for KJHW - October, 2019

Change the Weather History Date:

Thursday, October 24, 2019

  Actual Average Record
Temperature  
Mean Temperature 50 °F -  
Max Temperature 57 °F 58 °F 81 °F (1991)
Min Temperature 43 °F 31 °F 20 °F (1982)
Degree Days  
Heating Degree Days 15    
Moisture  
Dew Point 36 °F    
Average Humidity 64    
Maximum Humidity 93    
Minimum Humidity 50    
Precipitation  
Precipitation 0.00 in - - ()
Sea Level Pressure  
Sea Level Pressure 30.24 in    
Wind  
Wind Speed 10 mph (SW)    
Max Wind Speed 18 mph    
Max Gust Speed 22 mph    
Visibility 10 miles    
Events      
Averages and records for this station are not official NWS values.
T = Trace of Precipitation, MM = Missing Value Source: NWS Daily Summary

Daily Weather History Graph

Daily Weather History Graph

Search for Another Location

Airport or City:

Astronomy

Oct. 24, 2019 Rise Set
Actual Time 7:39 AM EDT 6:21 PM EDT
Civil Twilight 7:11 AM EDT 6:50 PM EDT
Nautical Twilight 6:38 AM EDT 7:23 PM EDT
Astronomical Twilight 6:06 AM EDT 7:55 PM EDT
Moon 3:01 AM EDT (10/24) 4:54 PM EDT (10/24)
Length of Visible Light 11h 39m
Length of Day
10h 41m
Waning Crescent, 17% of the Moon is Illuminated
Oct 24
Waning Crescent
Oct 27
New
Nov 4
First Quarter
Nov 12
Full
Nov 19
Last Quarter

Hourly Weather History & Observations

Time (EDT) Temp. Windchill Dew Point Humidity Pressure Visibility Wind Dir Wind Speed Gust Speed Precip Events Conditions
12:56 AM 43.0 °F 38.8 °F 30.9 °F 62% 30.17 in 10.0 mi South 6.9 mph - N/A   Clear
1:56 AM 46.0 °F 41.4 °F 30.9 °F 56% 30.17 in 10.0 mi SW 9.2 mph - N/A   Clear
2:56 AM 46.0 °F 41.0 °F 30.9 °F 56% 30.18 in 10.0 mi SSW 10.4 mph - N/A   Clear
3:56 AM 46.0 °F 40.2 °F 32.0 °F 58% 30.19 in 10.0 mi SSW 12.7 mph - N/A   Mostly Cloudy
4:56 AM 46.0 °F 40.2 °F 30.9 °F 56% 30.18 in 10.0 mi SSW 12.7 mph - N/A   Mostly Cloudy
5:56 AM 46.0 °F 40.2 °F 30.9 °F 56% 30.18 in 10.0 mi SSW 12.7 mph - N/A   Mostly Cloudy
6:56 AM 45.0 °F 39.3 °F 30.9 °F 58% 30.18 in 10.0 mi South 11.5 mph - N/A   Mostly Cloudy
7:56 AM 46.0 °F 41.4 °F 30.9 °F 56% 30.20 in 10.0 mi South 9.2 mph - N/A   Mostly Cloudy
8:56 AM 48.0 °F - 32.0 °F 54% 30.22 in 10.0 mi SSW 11.5 mph 18.4 mph N/A   Overcast
9:56 AM 50.0 °F - 32.0 °F 50% 30.23 in 10.0 mi SSW 12.7 mph - N/A   Overcast
10:56 AM 52.0 °F - 34.0 °F 50% 30.23 in 10.0 mi SSW 13.8 mph 18.4 mph N/A   Overcast
11:56 AM 54.0 °F - 36.0 °F 51% 30.23 in 10.0 mi SW 16.1 mph 19.6 mph N/A   Overcast
12:56 PM 54.0 °F - 37.0 °F 53% 30.23 in 10.0 mi SW 13.8 mph - N/A   Overcast
1:56 PM 55.9 °F - 39.0 °F 53% 30.22 in 10.0 mi West 18.4 mph - N/A   Scattered Clouds
2:56 PM 57.0 °F - 39.9 °F 53% 30.22 in 10.0 mi SW 13.8 mph 21.9 mph N/A   Clear
3:56 PM 57.0 °F - 39.9 °F 53% 30.24 in 10.0 mi SW 11.5 mph - N/A   Partly Cloudy
4:56 PM 54.0 °F - 44.1 °F 69% 30.26 in 10.0 mi NNW 10.4 mph - N/A   Mostly Cloudy
5:56 PM 52.0 °F - 44.1 °F 74% 30.27 in 10.0 mi NNW 4.6 mph - N/A   Clear
6:56 PM 48.0 °F - 42.1 °F 80% 30.29 in 10.0 mi NW 8.1 mph - N/A   Clear
7:56 PM 46.9 °F - 41.0 °F 80% 30.30 in 10.0 mi NW 6.9 mph - N/A   Scattered Clouds
8:56 PM 44.1 °F - 41.0 °F 89% 30.32 in 10.0 mi Calm Calm - N/A   Partly Cloudy
9:56 PM 45.0 °F 42.6 °F 42.1 °F 90% 30.33 in 10.0 mi North 4.6 mph - N/A   Partly Cloudy
10:56 PM 43.0 °F 41.3 °F 41.0 °F 93% 30.33 in 10.0 mi NE 3.5 mph - N/A   Clear
11:56 PM 44.1 °F - 41.0 °F 89% 30.34 in 10.0 mi Calm Calm - N/A   Scattered Clouds